Location: Cantuel
(44.8336°N, 2.4862°E)
Time: 05:21:14
(UTC+00:00)

Daily predictions for brighter satellites

Satellite Brightness Start Highest point End
(mag) Time Altitude Azimuth Time Altitude Azimuth Time Altitude Azimuth
SL-16 R/B 4.0 00:06:04 20° WNW 00:07:31 23° NW 00:11:56 10° N
Cosmos 1943 Rocket 4.2 00:03:20 10° N 00:07:45 23° NE 00:10:24 17° E
ATLAS 5 CENTAUR R/B 4.5 00:08:10 10° N 00:11:16 17° NNE 00:14:47 10° ENE
Cosmos 2344 4.4 00:21:23 10° NW 00:29:38 63° NE 00:40:59 10° SE
Tsikada Rocket 4.2 00:30:35 60° NW 00:30:35 60° NW 00:36:02 10° N
USA 215 4.0 00:29:10 10° ENE 00:34:07 39° ESE 00:34:07 39° ESE
Lacrosse 5 3.9 00:35:37 18° NW 00:38:02 25° NNW 00:42:15 10° NE
NOSS 0 Rocket 4.1 00:45:55 62° ENE 00:45:55 62° ENE 00:51:22 10° NNE
H-2A R/B 4.5 00:56:02 10° NNW 00:57:40 16° NW 00:57:40 16° NW
Cosmos 2237 Rocket 2.6 00:59:39 55° E 00:59:39 55° E 01:04:33 10° NNE
Cosmos 1980 4.0 01:02:36 60° ENE 01:02:36 60° ENE 01:07:31 10° NNE
IDEFIX/ARIANE 42P 3.6 00:59:21 10° NNE 01:03:55 36° E 01:03:55 36° E
USA 267 4.1 01:03:40 10° E 01:09:52 49° NNE 01:16:05 10° NW
CZ-2D R/B 3.3 01:05:12 10° NNE 01:10:03 33° E 01:10:23 32° ESE
Cosmos 2360 Rocket 4.4 01:10:54 13° WNW 01:12:52 16° NW 01:16:11 10° N
COSMOS 2428 3.3 01:13:37 47° NW 01:13:37 47° NW 01:18:58 10° NNE
Meteor 2-6 Rocket 4.5 01:15:50 62° WNW 01:15:50 62° WNW 01:21:20 10° N
Cosmos 2180 Rocket 4.4 01:13:44 10° NNW 01:19:58 72° W 01:19:58 72° W
Resurs 1-4 Rocket 2.8 01:17:03 10° NNE 01:22:05 43° E 01:22:17 43° ESE
Cosmos 2219 Rocket 3.9 01:23:12 21° WNW 01:24:10 22° NW 01:28:26 10° N
Cosmos 2278 Rocket 2.8 01:28:22 10° NNW 01:32:30 44° WNW 01:32:30 44° WNW
Cosmos 1680 Rocket 3.5 01:42:34 78° ESE 01:42:37 78° ESE 01:47:56 10° NNE
Cosmos 1420 Rocket 4.1 01:38:06 10° NNW 01:43:23 71° ENE 01:44:11 60° ESE
COBE Rocket 4.1 01:38:49 10° NNE 01:43:14 60° E 01:43:14 60° E
Meteor 2-10 4.2 01:37:41 10° N 01:43:25 81° ENE 01:44:15 66° SSE
Cosmos 2195 Rocket 4.5 01:44:51 60° SSE 01:46:04 79° E 01:52:17 10° N
ADEOS II 2.8 01:41:22 10° NNE 01:46:23 44° E 01:47:24 39° SE
RESURS DK-1 4.4 01:49:06 20° NW 01:49:06 20° NW 01:51:37 10° N
Nadezhda 4 Rocket 3.9 01:50:48 59° WSW 01:51:19 61° W 01:57:23 10° N
ATLAS 2AS CENTAUR R/B 2.8 01:49:36 53° S 01:51:26 73° ESE 01:58:36 10° NE
Cosmos 1943 Rocket 2.1 01:46:23 10° NNW 01:51:51 69° W 01:51:51 69° W
Cosmos 1428 Rocket 4.4 01:53:46 62° SSW 01:54:54 84° W 02:01:10 10° N
ATLAS 5 CENTAUR R/B 2.3 01:50:55 10° NNW 01:55:53 70° NE 02:02:04 10° SE
SL-16 R/B 2.6 01:54:58 45° SE 01:56:02 52° ESE 02:01:32 10° NE
Cosmos 2056 Rocket 3.6 01:51:39 10° NNW 01:57:05 79° ENE 01:58:37 49° SE
Cosmos 1340 Rocket 3.3 02:01:32 54° ENE 02:01:32 54° ENE 02:04:57 10° NNE
CZ-2C R/B 2.6 02:00:14 56° SSE 02:01:25 86° ENE 02:06:45 10° NNW
Meteor 1-27 Rocket 3.6 02:01:01 64° WSW 02:01:36 70° WNW 02:07:14 10° N
Sich 1 3.9 01:58:34 10° NNW 02:01:28 39° NW 02:01:28 39° NW
GP-B 3.0 01:59:35 10° N 02:03:57 82° ENE 02:03:57 82° ENE
GEOS 3 Rocket 3.9 01:58:56 10° SE 02:04:14 68° NE 02:09:31 10° NNW
SL-16 R/B 2.9 02:00:25 17° SE 02:05:17 63° ENE 02:11:28 10° N
Cosmos 1624 Rocket 3.8 02:01:47 10° NNW 02:07:02 88° WSW 02:08:03 59° SSE
ALOS 3.5 02:04:27 10° NNE 02:08:44 36° E 02:10:18 28° SE
NPP 3.7 02:06:09 10° N 02:11:28 60° WNW 02:12:10 55° WSW
Cosmos 1340 3.4 02:08:16 10° N 02:10:59 46° NNE 02:10:59 46° NNE
Cosmos 1805 3.6 02:10:16 10° N 02:13:21 59° N 02:13:21 59° N
USA 215 3.4 02:12:04 10° NE 02:18:33 66° NNW 02:21:28 34° W
Intercosmos 25 Rocket 4.4 02:16:48 10° N 02:20:54 61° E 02:27:24 10° SSE
Lacrosse 5 4.2 02:18:34 10° NW 02:22:29 22° N 02:26:25 10° ENE
COSMOS 2441 4.3 02:18:48 10° N 02:23:41 76° WNW 02:24:29 60° SW
Cosmos 1666 Rocket 3.5 02:19:45 10° N 02:24:13 83° E 02:25:08 55° SSE
Cosmos 1553 Rocket 4.1 02:18:59 10° N 02:25:13 72° E 02:30:02 17° SSE
NOSS 3-1 (C) 4.0 02:22:09 10° NW 02:29:36 79° WSW 02:38:35 10° SSE
ATLAS 3B R/B 3.3 02:28:41 10° NW 02:36:31 69° NE 02:44:15 10° SE
MSX 4.3 02:31:28 10° N 02:36:57 46° WNW 02:38:35 36° WSW
Cosmos 1371 Rocket 4.3 02:34:21 10° NNW 02:39:22 45° WSW 02:39:56 43° WSW
Cosmos 2026 Rocket 4.3 02:37:38 38° SW 02:39:41 51° WNW 02:45:54 10° N
Cosmos 1656 Rocket 3.6 02:35:31 10° NNW 02:40:58 81° ENE 02:46:24 10° SSE
Cosmos 1328 Rocket 3.4 02:41:11 52° SSW 02:42:12 77° W 02:46:40 10° N
Cosmos 1626 1.7 02:42:31 80° ESE 02:42:33 81° E 02:45:52 10° N
Cosmos 2237 Rocket 3.6 02:41:27 21° W 02:43:24 26° NW 02:48:06 10° N
IDEFIX/ARIANE 42P 3.5 02:39:02 10° N 02:43:35 31° WNW 02:44:41 29° W
USA 308 4.2 02:42:30 23° NW 02:43:47 28° NNW 02:47:12 10° NE
Gbstr 26 Del rocket 4.4 02:40:00 10° WNW 02:43:58 34° N 02:47:29 10° ENE
Cosmos 1066 Rocket 4.4 02:40:39 24° S 02:43:59 66° E 02:49:31 10° NNE
ISS -1.3 02:44:09 13° SE 02:44:22 13° SE 02:46:03 10° ESE
Cosmos 1092 Rocket 4.4 02:42:40 35° WSW 02:44:34 46° WNW 02:50:29 10° N
Cosmos 2369 Rocket 2.4 02:39:47 10° NNW 02:45:24 70° ENE 02:50:57 10° SSE
Cosmos 1151 Rocket 4.1 02:47:22 29° WNW 02:47:25 29° WNW 02:51:14 10° NNW
Cosmos 921 Rocket 3.6 02:48:29 38° W 02:49:06 40° WNW 02:53:15 10° N
CZ-2C R/B 3.4 02:44:37 10° N 02:49:50 56° WNW 02:51:58 35° SW
CZ-2D R/B 2.9 02:45:08 10° N 02:50:03 37° WNW 02:51:41 30° WSW
Cosmos 1975 3.1 02:46:48 10° NNW 02:50:23 45° W 02:50:23 45° W
USA 267 3.1 02:46:17 10° SE 02:52:45 67° SW 02:59:14 10° NW
SAR-Lupe-1 4.2 02:50:11 10° N 02:53:43 54° WNW 02:54:03 52° W
Cosmos 1633 Rocket 3.1 02:49:30 10° NNW 02:53:47 57° W 02:55:02 41° SSW
Cosmos 2297 3.6 02:48:16 10° NNW 02:54:01 77° WSW 02:59:45 10° SSE
AQUA 4.1 02:50:35 10° N 02:55:11 52° WNW 02:56:42 37° WSW
SAR-Lupe-4 3.9 02:54:28 10° N 02:57:53 45° WNW 02:58:13 43° W
Resurs 1-4 Rocket 3.2 02:57:14 10° N 03:01:40 28° WNW 03:03:21 23° W
Cosmos 494 Rocket 4.1 03:02:01 32° SW 03:04:11 58° WNW 03:09:15 10° NNE
Cosmos 1766 2.9 03:01:35 10° N 03:05:16 80° W 03:07:19 25° S
Meteor 2-4 Rocket 4.1 03:04:18 29° SW 03:06:37 46° WNW 03:12:03 10° N
Iridium 51 3.9 03:05:13 32° S 03:06:39 81° E 03:10:05 10° N
Cosmos 1943 3.6 03:03:45 18° S 03:07:58 62° ESE 03:13:36 10° NNE
FENGYUN 3A 4.3 03:06:46 10° N 03:11:48 40° WNW 03:14:21 25° WSW
Cosmos 1048 Rocket 4.0 03:09:34 27° SW 03:12:26 67° WNW 03:17:39 10° NNE
UNK 3.9 03:10:15 22° SSW 03:13:02 51° W 03:17:33 10° NNW
USA 290 4.3 03:12:07 10° NW 03:13:01 15° WNW 03:13:01 15° WNW
Cosmos 2263 4.2 03:09:21 10° NNW 03:15:02 88° ENE 03:20:42 10° SSE
Thor Agena Rocket 4.3 03:11:06 10° NNE 03:16:02 51° E 03:20:58 10° S
CZ-2C R/B 2.9 03:16:42 10° NNE 03:21:51 65° ESE 03:26:53 10° S
H-2A R/B 4.3 03:19:17 10° NE 03:23:17 23° E 03:27:21 10° SE
USA 306 3.8 03:22:03 18° S 03:24:09 32° SE 03:27:23 10° ENE
ADEOS II 3.2 03:21:26 10° N 03:25:46 27° WNW 03:28:17 19° WSW
PAYLOAD A 4.3 03:21:38 10° NNE 03:26:24 60° ESE 03:31:01 10° S
EO 1 Delta rocket 4.4 03:22:57 10° N 03:27:21 42° WNW 03:30:33 19° SW
Cosmos 883 Rocket 4.5 03:23:11 10° N 03:29:21 88° E 03:35:28 10° S
Cosmos 1707 2.6 03:27:11 13° S 03:30:21 83° E 03:34:03 10° N
Cosmos 1302 Rocket 4.4 03:28:22 10° NNW 03:33:33 66° ENE 03:38:41 10° SSE
IRS-1D 3.8 03:28:55 10° NNE 03:34:06 72° ESE 03:39:21 10° S
Cosmos 1842 3.1 03:32:03 18° SSW 03:34:41 62° W 03:38:24 10° N
CZ-4 R/B 3.8 03:30:22 10° N 03:35:00 62° WNW 03:38:49 15° SSW
Cosmos 1110 Rocket 4.2 03:31:54 10° NNW 03:37:00 51° WSW 03:42:06 10° S
Cosmos 2266 Rocket 4.0 03:32:13 12° SSW 03:37:52 61° W 03:43:52 10° N
YAOGAN 6 2.3 03:36:10 10° NNE 03:39:29 87° ESE 03:42:44 10° SSW
ATLAS 5 CENTAUR R/B 3.3 03:35:31 10° WNW 03:39:41 23° WSW 03:44:27 10° SSW
Cosmos 1603 3.9 03:34:20 10° SSW 03:39:54 72° ESE 03:45:32 10° NNE
SL-16 R/B 3.4 03:36:50 15° W 03:40:26 28° NW 03:45:17 10° N
SL-08 ROCKET BODY 4.4 03:35:31 10° SSW 03:41:26 66° W 03:47:29 10° N
CZ-2C R/B 4.4 03:41:43 13° W 03:42:19 13° W 03:44:44 10° WNW
S3M 4.1 03:36:54 10° NNW 03:42:55 55° W 03:49:01 10° SSW
ATLAS 2AS CENTAUR R/B 3.8 03:37:01 12° W 03:42:57 34° NW 03:49:19 10° NNE
Cosmos 1515 Rocket 4.2 03:40:24 17° SW 03:43:20 37° WNW 03:47:28 10° N
Cosmos 1452 Rocket 3.9 03:40:29 10° NW 03:45:22 41° WSW 03:50:14 10° S
ALOS 3.4 03:41:57 10° N 03:45:47 26° WNW 03:48:37 15° WSW
Cosmos 1869 Rocket 3.4 03:43:43 10° N 03:48:04 83° W 03:52:22 10° S
SL-16 R/B 3.6 03:45:30 13° SW 03:49:19 23° W 03:54:09 10° NW
Envisat 3.2 03:45:46 10° N 03:50:43 54° WNW 03:55:38 10° SSW
USA 215 4.5 03:55:09 10° NE 04:00:54 34° NNW 04:06:39 10° WNW
NOSS 3-1 (A) 4.4 03:55:23 10° NW 04:02:36 45° WSW 04:11:00 10° S
Cosmos 2228 Rocket 3.5 03:58:31 10° S 04:02:52 65° E 04:07:13 10° NNE
Cosmos 1674 3.7 04:01:58 12° SW 04:04:21 23° WNW 04:07:11 10° NNW
Meteor 1-22 Rocket 4.1 04:00:18 10° NNW 04:05:51 85° W 04:11:12 10° S
Lacrosse 5 3.2 04:01:44 10° NW 04:06:37 43° NNE 04:11:28 10° ESE
Meteor 1-13 Rocket 4.4 04:01:38 10° SSW 04:07:21 64° WNW 04:13:14 10° N
CZ-3 R/B 4.1 03:50:13 11° WSW 04:11:04 34° S 04:18:52 10° ESE
USA 229 DEB 4.0 04:05:00 10° NW 04:12:31 82° SW 04:20:39 10° SSE
USA 229 4.0 04:05:06 10° NW 04:12:36 82° SW 04:20:42 10° SSE
Cosmos 1908 3.5 04:09:16 10° NNW 04:12:41 39° W 04:16:04 10° SSW
USA 305 1.3 04:14:01 10° SW 04:15:33 47° SE 04:17:30 10° ENE
DMSP B5D2-2 4.3 04:10:38 10° S 04:15:40 50° W 04:20:44 10° NNW
Cosmos 1992 Rocket 4.3 04:11:14 10° NNW 04:16:30 77° ENE 04:21:43 10° SSE
Cosmos 1470 3.9 04:14:43 10° NW 04:17:46 23° W 04:20:46 10° SW
Meteor 1-15 Rocket 4.3 04:12:15 10° NNW 04:18:06 67° W 04:23:50 10° S
Cosmos 1733 Rocket 3.3 04:14:10 10° N 04:18:31 76° E 04:22:48 10° SSE
ISS -3.8 04:17:18 10° WSW 04:20:37 88° SSE 04:23:57 10° ENE
Cosmos 1862 Rocket 3.9 04:17:47 10° S 04:22:08 72° E 04:26:29 10° NNE
ATLAS 3B R/B 3.6 04:20:08 10° NW 04:26:48 32° WSW 04:33:22 10° S
